STARLINK-37069, 68158

Orbit data source: Space-Track

STARLINK-37069, 68158 is a payload satellite owned by SpaceX/Seattle (US) in SSO that was launched on Fri, 13 Mar 2026 UTC via an FALCON 9 launch vehicle from the Air Force Western Test Range (AFWTR). Payload-class satellites include a variety of spacecraft equipped with specific instruments for various scientific and technological missions. These include communications satellites like Starlink; space stations such as the ISS; scientific satellites like the Hubble; Earth observation satellites from companies like Planet Labs, Umbra, and HawkEye 360; GPS; miniature CubeSats for education and research; and military/defense satellites.

Loading next visibility...
Identifier
68158, 2026-049S
Orbit
SSO
Country
Flag of USUS
Related business
Manufacturer
SpaceX/Seattle
Mission
Operational spacecraft
Bus & Motor
STARLINK V2MO, Unknown motor
Mass
575 kg wet, ~530 kg dry
Launch date (UTC)
2026-03-13 (3 months ago)
Launch vehicle
FALCON 9
Launch site
Air Force Western Test Range (AFWTR)
Object type
Payload
Rocket body
Debris
Shape & HBR
Unknown shape, 17.7 m
Radar Cross Section
Large (>1 m²)

Expand to show TLE details & history
Last TLE update: 22 hours ago

TLE from 22 hours ago
0 STARLINK-37069
1 68158U 26049S   26171.00679560  .00029522  00000-0  91141-3 0  9998
2 68158  97.2857 192.2410 0001018  28.1919 331.9378 15.33507474 15321
Epoch: 2026-06-20T00:09Z
TLE epoch observation values (Epoch: 2026-06-20T00:09:47.139Z)
Latitude
-0.00012°
Longitude
-78.43301°
Altitude
467.854 km
Speed
7.633 km/s
True Right ascension
12h 48m 57s
True Declination
0° 00' 00"
Sunlit
Object was in daylight at epoch
Visualization orbit readout
Latitude
Unknown
Longitude
Unknown
Altitude
Unknown
Speed
Unknown
Apparent Right ascension
Unknown
Apparent Declination
Unknown
Sunlit
N/A
Visualization observer readout
Local Sidereal Time
08:42:06
Azimuth
Unknown
Elevation
Unknown
Doppler factor
Unknown
Orbital elements
Apogee altitude
462.996 km
Perigee altitude
461.604 km
Semi-major axis
6,840.437 km
Eccentricity
0.0001
Inclination
97.2857°
RAAN
192.241°
Arg. of periapsis
28.1919°
True anomaly
331.93231°
Mean anomaly
331.9378°
Eccentric anomaly
331.93506°
Mean motion
3.83634 °/min
Orbital period
93.84 mins
BSTAR
0.00091141
Loading maneuver chart data...
Computing Atmospheric mass density...
Loading historical data...
Loading historical data...
Loading historical data...
Loading historical data...
Loading historical data...
Loading historical data...
Loading historical data...

Documentation

Showing up to 5 results
|